This is the latest recevied weather packets stored in our database for station/object EA3GKP-7. If no packets are shown the sender has not sent any weather packets the latest 10 day(s).
| Time | Temp. | Humidity | Pressure | Rain* | Wind** | Luminosity | Snow |
|---|---|---|---|---|---|---|---|
| 1787676320 | 31.67° C | 53% | 1014.3 hPa | - | - | - | - |
| 1787676019 | 31.67° C | 49% | 1014.2 hPa | - | - | - | - |
| 1787675719 | 31.67° C | 45% | 1014.3 hPa | - | - | - | - |
| 1787675419 | 32.22° C | 44% | 1014.4 hPa | - | - | - | - |
| 1787675120 | 32.22° C | 44% | 1014.4 hPa | - | - | - | - |
| 1787674819 | 32.22° C | 44% | 1014.3 hPa | - | - | - | - |
| 1787674519 | 32.22° C | 44% | 1014.3 hPa | - | - | - | - |
| 1787674219 | 32.22° C | 44% | 1014.4 hPa | - | - | - | - |
| 1787673919 | 32.78° C | 45% | 1014.3 hPa | - | - | - | - |
| 1787673619 | 32.78° C | 45% | 1014.3 hPa | - | - | - | - |
| 1787673319 | 32.78° C | 43% | 1014.3 hPa | - | - | - | - |
| 1787673019 | 32.78° C | 42% | 1014.5 hPa | - | - | - | - |
| 1787672719 | 32.78° C | 41% | 1014.4 hPa | - | - | - | - |
| 1787672419 | 32.78° C | 40% | 1014.3 hPa | - | - | - | - |
| 1787672119 | 32.78° C | 39% | 1014.4 hPa | - | - | - | - |
| 1787671819 | 32.78° C | 39% | 1014.4 hPa | - | - | - | - |
| 1787671525 | 32.78° C | 37% | 1014.5 hPa | - | - | - | - |
| 1787671219 | 32.78° C | 37% | 1014.5 hPa | - | - | - | - |
| 1787670919 | 33.33° C | 39% | 1014.4 hPa | - | - | - | - |
| 1787670619 | 32.78° C | 39% | 1014.3 hPa | - | - | - | - |
| 1787670319 | 33.33° C | 37% | 1014.5 hPa | - | - | - | - |
| 1787670019 | 33.33° C | 35% | 1014.5 hPa | - | - | - | - |
| 1787669719 | 33.33° C | 34% | 1014.7 hPa | - | - | - | - |
| 1787669419 | 33.89° C | 38% | 1014.6 hPa | - | - | - | - |
| 1787669119 | 33.33° C | 38% | 1014.5 hPa | - | - | - | - |
* Rain since midnight (hover to see other rain measurements)
** Current wind speed in m/s (hover to see current wind gust speed)